Regional Weather Roundup
Issued by NWS

Home | Current Version | Previous Version | Text Only | Print | Product List | Glossary On
Versions: 1 2 3 4 5 6 7 8 9 10 11 12 13 14 15 16 17 18 19 20 21 22 23 24 25 26 27
000
ASUS44 KBMX 181010
RWRAL

ALABAMA REGIONAL WEATHER ROUNDUP
NATIONAL WEATHER SERVICE BIRMINGHAM AL
400 AM CST SAT NOV 18 2017

NOTE: "FAIR" INDICATES FEW OR NO CLOUDS BELOW 12,000 FEET
WITH NO SIGNIFICANT WEATHER AND/OR OBSTRUCTIONS TO VISIBILITY.

THE REMARK "TC" DENOTES TEMPERATURE IN DEGREES CELSIUS.

ALZ001>011-014-016>018-020-181100-
NORTH ALABAMA

CITY           SKY/WX    TMP DP  RH WIND       PRES   REMARKS
MUSCLE SHOALS  CLOUDY    62  56  80 S15G22    29.85F
HUNTSVILLE     CLOUDY    59  51  75 S10       29.89F
DECATUR        CLOUDY    60  53  77 S14       29.89F
HALEYVILLE     CLOUDY    59  59 100 S16G22    29.90F
GADSDEN        CLOUDY    46  45  96 CALM      29.97F
$$

ALZ012-013-022-023-030>036-040>044-181100-
WEST CENTRAL ALABAMA

CITY           SKY/WX    TMP DP  RH WIND       PRES   REMARKS
TUSCALOOSA     CLOUDY    60  59  96 S6        29.93F
DEMOPOLIS        N/A     59  57  94 CALM      29.93F
$$

ALZ015-024>026-033>036-041>044-181100-
CENTRAL ALABAMA

CITY           SKY/WX    TMP DP  RH WIND       PRES   REMARKS
BIRMINGHAM     MOCLDY    58  51  78 VRB5      29.97F
MONTGOMERY     CLEAR     48  43  82 E3        29.99F
SHELBY CO ARPT MOCLDY    53  50  89 CALM      29.97F
MAXWELL AFB    CLEAR     49  47  96 CALM      29.98F
GREENVILLE     MOCLDY    52  48  86 SE3       29.99S
SELMA          FAIR      55  54  94 SE5       29.96S
PRATTVILLE     FAIR      46  46 100 CALM      29.99S
BESSEMER       PTSUNNY   55  52  89 SE7       29.96F
TALLADEGA      CLOUDY    57  44  62 SE7       29.98F
PELL CITY      MOSUNNY   50  48  93 CALM      29.97F
MARION         FAIR      54  54 100 CALM      29.95S FOG
SYLACAUGA      CLOUDY    56  48  75 CALM      29.99S
$$

ALZ019-021-028-029-037-038-045>048-181100-
EAST CENTRAL ALABAMA

CITY           SKY/WX    TMP DP  RH WIND       PRES   REMARKS
ANNISTON       CLOUDY    52  45  77 CALM      29.99F
ALEXANDER CITY MOCLDY    46  44  93 CALM      30.01S
AUBURN         CLOUDY    50  43  77 SE5       30.03S
$$

ALZ051>064-181100-
SOUTHWEST ALABAMA

CITY           SKY/WX    TMP DP  RH WIND       PRES   REMARKS
MOBILE         PTCLDY    63  61  93 S5        29.96F
BROOKLEY FIELD CLEAR     65  65 100 SE3       29.97F
EVERGREEN      MOCLDY    54  52  93 CALM      29.98F FOG
$$

ALZ049-050-065>069-181100-
SOUTHEAST ALABAMA

CITY           SKY/WX    TMP DP  RH WIND       PRES   REMARKS
DOTHAN         CLEAR     48  47  96 CALM      30.05S
OZARK          CLEAR     47  44  90 CALM      30.01S
TROY           CLEAR     46  45  96 CALM      30.01F
EUFAULA        FAIR      44  43  96 CALM      30.02S
$$




USA.gov is the U.S. government's official web portal to all federal, state and local government web resources and services.